This demonstration page uses our WeatherBlox Daily Observations layout. Learn more.

Left ArrowRight Arrow

Hourly Observations for June 10, 2017

Temp ( °F °C ) Dew Point ( °F °C ) Humidity (%) Winds ( mph kmh ) Pressure ( in mb ) Visibility ( mi km ) Precip ( " mm )
12:56 am 00:56 Clear 76 24.5 61 15.9 59 59 S 13 20 29.67 1005 10 16 0.00 0.00
1:56 am 01:56 Clear 75 24 60 15.7 60 60 S 14 22 29.67 1005 10 16 0.00 0.00
2:56 am 02:56 Clear 74 23.5 61 16.3 64 64 S 14 22 29.66 1004 10 16 0.00 0.00
3:56 am 03:56 Clear 73 23 62 16.5 67 67 S 13 20 29.66 1004 10 16 0.00 0.00
4:56 am 04:56 Clear 72 22.2 62 16.7 71 71 S 12 19 29.67 1005 10 16 0.00 0.00
5:56 am 05:56 Sunny 71 21.5 62 16.7 74 74 S 12 19 29.67 1005 6 10 0.00 0.00
6:56 am 06:56 Sunny 71 21.6 62 16.7 74 74 S 12 19 29.65 1004 10 16 0.00 0.00
7:56 am 07:56 Sunny N/A N/A N/A SSE 12 19 N/A 10 16 0.00 0.00
8:56 am 08:56 Sunny N/A N/A N/A SSE 17 28 N/A 10 16 0.00 0.00
9:56 am 09:56 Sunny N/A N/A N/A S 18 30 N/A 10 16 0.00 0.00
10:56 am 10:56 Sunny 81 27 66 19 62 62 S 18 30 29.62 1003 10 16 0.00 0.00
11:56 am 11:56 Sunny 83 28.6 67 19.2 57 57 S 16 26 29.88 1012 10 16 0.00 0.00
12:56 pm 12:56 Sunny 86 30 67 19.6 54 54 SSW 20 31 29.63 1003 10 16 0.00 0.00
1:56 pm 13:56 Sunny 89 31.6 68 19.9 50 50 S 12 19 29.62 1003 10 16 0.00 0.00
2:56 pm 14:56 Sunny 92 33.2 68 20 46 46 S 17 28 29.60 1002 10 16 0.00 0.00
3:56 pm 15:56 Sunny 93 34 68 20 44 44 S 14 22 29.59 1002 10 16 0.00 0.00
4:56 pm 16:56 Sunny 94 34.2 68 19.8 43 43 S 16 26 29.59 1002 10 16 0.00 0.00
5:56 pm 17:56 Sunny 93 34 69 20.3 45 45 S 16 26 29.59 1002 10 16 0.00 0.00
6:56 pm 18:56 Sunny 90 32.3 69 20.8 51 51 S 14 22 29.59 1002 10 16 0.00 0.00
7:56 pm 19:56 Sunny 88 31.2 69 20.7 54 54 S 15 24 29.56 1001 10 16 0.00 0.00
8:56 pm 20:56 Clear 86 29.8 70 20.9 59 59 SSE 13 20 29.59 1002 10 16 0.00 0.00
9:56 pm 21:56 Mostly Clear 84 29.1 70 21 62 62 SSE 13 20 29.59 1002 10 16 0.00 0.00
10:56 pm 22:56 Mostly Clear 83 28.4 69 20.6 63 63 SSE 18 30 29.65 1004 10 16 0.00 0.00
11:56 pm 23:56 Mostly Clear 82 27.7 69 20.7 66 66 SSE 18 30 29.67 1005 10 16 0.00 0.00

Powered by AerisWeather